Tabellarische Ansicht des 11.6.2017


Die einzelnen Werte des Tages

Uhrzeit Temperatur Luftdruck Luftfeuchte Wind Hi-Wind Taupunkt THW Index Wind Chill Heat Index Solar- strahlung Regen

00:00

15.2 C

1016.9 hpa

79 %

3.2 km/h aus 115

4.8 km/h aus ESE

11.5 C

15.1 C

15.2 C

15.1 C

0 W/m

0.00 mm

00:05

15.0 C

1016.9 hpa

79 %

3.2 km/h aus 112

6.4 km/h aus ESE

11.4 C

14.8 C

15.0 C

14.8 C

0 W/m

0.00 mm

00:10

14.9 C

1016.9 hpa

79 %

3.2 km/h aus 117

4.8 km/h aus ESE

11.3 C

14.7 C

14.9 C

14.7 C

0 W/m

0.00 mm

00:15

14.8 C

1016.7 hpa

79 %

3.2 km/h aus 117

4.8 km/h aus ESE

11.2 C

14.6 C

14.8 C

14.6 C

0 W/m

0.00 mm

00:20

14.7 C

1016.7 hpa

80 %

1.6 km/h aus 116

4.8 km/h aus ESE

11.3 C

14.6 C

14.7 C

14.6 C

0 W/m

0.00 mm

00:25

14.6 C

1016.7 hpa

80 %

3.2 km/h aus 115

4.8 km/h aus ESE

11.1 C

14.4 C

14.6 C

14.4 C

0 W/m

0.00 mm

00:30

14.5 C

1016.6 hpa

80 %

1.6 km/h aus 115

4.8 km/h aus ESE

11.1 C

14.4 C

14.5 C

14.4 C

0 W/m

0.00 mm

00:35

14.4 C

1016.6 hpa

80 %

1.6 km/h aus 114

3.2 km/h aus ESE

11.0 C

14.3 C

14.4 C

14.3 C

0 W/m

0.00 mm

00:40

14.3 C

1016.6 hpa

80 %

1.6 km/h aus 117

3.2 km/h aus ESE

10.9 C

14.2 C

14.3 C

14.2 C

0 W/m

0.00 mm

00:45

14.2 C

1016.4 hpa

80 %

1.6 km/h aus 116

3.2 km/h aus ESE

10.8 C

14.1 C

14.2 C

14.1 C

0 W/m

0.00 mm

00:50

14.2 C

1016.4 hpa

80 %

1.6 km/h aus 115

3.2 km/h aus ESE

10.8 C

14.1 C

14.2 C

14.1 C

0 W/m

0.00 mm

00:55

14.1 C

1016.4 hpa

80 %

3.2 km/h aus 115

4.8 km/h aus ESE

10.7 C

13.9 C

14.1 C

13.9 C

0 W/m

0.00 mm

01:00

13.9 C

1016.4 hpa

81 %

3.2 km/h aus 116

4.8 km/h aus ESE

10.7 C

13.8 C

13.9 C

13.8 C

0 W/m

0.00 mm

01:05

13.8 C

1016.4 hpa

81 %

3.2 km/h aus 117

4.8 km/h aus ESE

10.6 C

13.7 C

13.8 C

13.7 C

0 W/m

0.00 mm

01:10

13.8 C

1016.4 hpa

81 %

3.2 km/h aus 117

6.4 km/h aus ESE

10.6 C

13.6 C

13.8 C

13.6 C

0 W/m

0.00 mm

01:15

13.7 C

1016.4 hpa

81 %

3.2 km/h aus 116

6.4 km/h aus ESE

10.5 C

13.6 C

13.7 C

13.6 C

0 W/m

0.00 mm

01:20

13.6 C

1016.4 hpa

82 %

4.8 km/h aus 116

8.0 km/h aus ESE

10.6 C

13.5 C

13.6 C

13.5 C

0 W/m

0.00 mm

01:25

13.6 C

1016.4 hpa

82 %

3.2 km/h aus 115

6.4 km/h aus ESE

10.5 C

13.4 C

13.6 C

13.4 C

0 W/m

0.00 mm

01:30

13.5 C

1016.4 hpa

82 %

3.2 km/h aus 117

4.8 km/h aus ESE

10.5 C

13.4 C

13.5 C

13.4 C

0 W/m

0.00 mm

01:35

13.4 C

1016.4 hpa

82 %

6.4 km/h aus 117

8.0 km/h aus ESE

10.4 C

13.2 C

13.3 C

13.3 C

0 W/m

0.00 mm

01:40

13.3 C

1016.4 hpa

82 %

4.8 km/h aus 116

8.0 km/h aus ESE

10.3 C

13.2 C

13.3 C

13.2 C

0 W/m

0.00 mm

01:45

13.3 C

1016.4 hpa

83 %

4.8 km/h aus 115

8.0 km/h aus ESE

10.5 C

13.2 C

13.3 C

13.2 C

0 W/m

0.00 mm

01:50

13.2 C

1016.4 hpa

83 %

4.8 km/h aus 113

6.4 km/h aus ESE

10.4 C

13.1 C

13.2 C

13.1 C

0 W/m

0.00 mm

01:55

13.2 C

1016.4 hpa

83 %

4.8 km/h aus 117

6.4 km/h aus ESE

10.3 C

13.1 C

13.2 C

13.1 C

0 W/m

0.00 mm

02:00

13.1 C

1016.4 hpa

83 %

3.2 km/h aus 117

6.4 km/h aus ESE

10.2 C

12.9 C

13.1 C

12.9 C

0 W/m

0.00 mm

02:05

13.0 C

1016.4 hpa

83 %

3.2 km/h aus 117

4.8 km/h aus ESE

10.2 C

12.9 C

13.0 C

12.9 C

0 W/m

0.00 mm

02:10

12.9 C

1016.4 hpa

83 %

3.2 km/h aus 115

6.4 km/h aus ESE

10.1 C

12.8 C

12.9 C

12.8 C

0 W/m

0.00 mm

02:15

12.9 C

1016.4 hpa

84 %

3.2 km/h aus 114

6.4 km/h aus ESE

10.2 C

12.8 C

12.9 C

12.8 C

0 W/m

0.00 mm

02:20

12.8 C

1016.4 hpa

84 %

4.8 km/h aus 116

6.4 km/h aus ESE

10.2 C

12.8 C

12.8 C

12.8 C

0 W/m

0.00 mm

02:25

12.8 C

1016.4 hpa

84 %

6.4 km/h aus 116

8.0 km/h aus ESE

10.2 C

12.6 C

12.6 C

12.8 C

0 W/m

0.00 mm

02:30

12.8 C

1016.2 hpa

84 %

6.4 km/h aus 116

8.0 km/h aus ESE

10.1 C

12.5 C

12.6 C

12.7 C

0 W/m

0.00 mm

02:35

12.7 C

1016.2 hpa

84 %

4.8 km/h aus 116

6.4 km/h aus ESE

10.1 C

12.7 C

12.7 C

12.7 C

0 W/m

0.00 mm

02:40

12.7 C

1016.2 hpa

84 %

4.8 km/h aus 114

6.4 km/h aus ESE

10.0 C

12.6 C

12.7 C

12.6 C

0 W/m

0.00 mm

02:45

12.6 C

1016.1 hpa

84 %

4.8 km/h aus 116

8.0 km/h aus ESE

10.0 C

12.6 C

12.6 C

12.6 C

0 W/m

0.00 mm

02:50

12.6 C

1016.1 hpa

84 %

4.8 km/h aus 117

8.0 km/h aus ESE

9.9 C

12.5 C

12.6 C

12.5 C

0 W/m

0.00 mm

02:55

12.5 C

1016.1 hpa

84 %

6.4 km/h aus 117

8.0 km/h aus ESE

9.9 C

12.2 C

12.3 C

12.4 C

0 W/m

0.00 mm

03:00

12.4 C

1016.2 hpa

84 %

8.0 km/h aus 117

9.7 km/h aus ESE

9.8 C

11.8 C

11.9 C

12.4 C

0 W/m

0.00 mm

03:05

12.4 C

1016.2 hpa

85 %

8.0 km/h aus 115

11.3 km/h aus SE

9.9 C

11.8 C

11.8 C

12.3 C

0 W/m

0.00 mm

03:10

12.4 C

1016.2 hpa

85 %

9.7 km/h aus 114

11.3 km/h aus SE

9.9 C

11.5 C

11.6 C

12.3 C

0 W/m

0.00 mm

03:15

12.3 C

1015.9 hpa

86 %

8.0 km/h aus 116

11.3 km/h aus ESE

10.1 C

11.7 C

11.7 C

12.3 C

0 W/m

0.00 mm

03:20

12.3 C

1015.9 hpa

86 %

8.0 km/h aus 117

9.7 km/h aus ESE

10.1 C

11.7 C

11.7 C

12.3 C

0 W/m

0.00 mm

03:25

12.3 C

1015.9 hpa

86 %

8.0 km/h aus 116

9.7 km/h aus SE

10.1 C

11.7 C

11.7 C

12.3 C

0 W/m

0.00 mm

03:30

12.4 C

1015.9 hpa

86 %

6.4 km/h aus 117

8.0 km/h aus SE

10.1 C

12.1 C

12.1 C

12.3 C

0 W/m

0.00 mm

03:35

12.4 C

1015.9 hpa

86 %

6.4 km/h aus 114

8.0 km/h aus SE

10.1 C

12.1 C

12.1 C

12.3 C

0 W/m

0.00 mm

03:40

12.4 C

1015.9 hpa

86 %

6.4 km/h aus 116

8.0 km/h aus SE

10.1 C

12.1 C

12.1 C

12.3 C

0 W/m

0.00 mm

03:45

12.4 C

1015.9 hpa

86 %

6.4 km/h aus 117

8.0 km/h aus SE

10.2 C

12.1 C

12.2 C

12.4 C

0 W/m

0.00 mm

03:50

12.4 C

1015.9 hpa

86 %

4.8 km/h aus 117

8.0 km/h aus SE

10.2 C

12.4 C

12.4 C

12.4 C

0 W/m

0.00 mm

03:55

12.4 C

1015.9 hpa

86 %

4.8 km/h aus 117

8.0 km/h aus SE

10.2 C

12.4 C

12.4 C

12.4 C

0 W/m

0.00 mm

04:00

12.4 C

1015.8 hpa

85 %

6.4 km/h aus 113

9.7 km/h aus SE

10.0 C

12.1 C

12.2 C

12.4 C

0 W/m

0.00 mm

04:05

12.4 C

1015.8 hpa

85 %

6.4 km/h aus 116

9.7 km/h aus SE

9.9 C

12.1 C

12.1 C

12.3 C

0 W/m

0.00 mm

04:10

12.4 C

1015.8 hpa

85 %

8.0 km/h aus 116

11.3 km/h aus SE

9.9 C

11.8 C

11.8 C

12.3 C

0 W/m

0.00 mm

04:15

12.3 C

1015.8 hpa

85 %

8.0 km/h aus 117

11.3 km/h aus SE

9.9 C

11.7 C

11.7 C

12.3 C

0 W/m

0.00 mm

04:20

12.3 C

1015.8 hpa

85 %

8.0 km/h aus 117

11.3 km/h aus SE

9.9 C

11.7 C

11.7 C

12.3 C

0 W/m

0.00 mm

04:25

12.3 C

1015.8 hpa

86 %

8.0 km/h aus 115

11.3 km/h aus SE

10.0 C

11.6 C

11.7 C

12.2 C

0 W/m

0.00 mm

04:30

12.3 C

1015.6 hpa

86 %

8.0 km/h aus 115

11.3 km/h aus SE

10.0 C

11.6 C

11.7 C

12.2 C

0 W/m

0.00 mm

04:35

12.3 C

1015.6 hpa

86 %

8.0 km/h aus 117

11.3 km/h aus SE

10.0 C

11.6 C

11.7 C

12.2 C

0 W/m

0.00 mm

04:40

12.3 C

1015.6 hpa

86 %

9.7 km/h aus 117

14.5 km/h aus ESE

10.0 C

11.3 C

11.4 C

12.2 C

0 W/m

0.00 mm

04:45

12.3 C

1015.4 hpa

87 %

9.7 km/h aus 117

14.5 km/h aus SE

10.2 C

11.4 C

11.4 C

12.3 C

0 W/m

0.00 mm

04:50

12.5 C

1015.4 hpa

87 %

8.0 km/h aus 116

11.3 km/h aus SE

10.4 C

11.9 C

11.9 C

12.5 C

0 W/m

0.00 mm

04:55

12.6 C

1015.4 hpa

87 %

8.0 km/h aus 115

11.3 km/h aus ESE

10.5 C

12.1 C

12.1 C

12.6 C

2 W/m

0.00 mm

05:00

12.7 C

1015.4 hpa

88 %

9.7 km/h aus 115

12.9 km/h aus ESE

10.8 C

11.9 C

11.9 C

12.7 C

5 W/m

0.00 mm

05:05

12.8 C

1015.4 hpa

87 %

8.0 km/h aus 116

14.5 km/h aus ESE

10.7 C

12.3 C

12.3 C

12.8 C

7 W/m

0.00 mm

05:10

12.9 C

1015.4 hpa

87 %

8.0 km/h aus 116

14.5 km/h aus ESE

10.8 C

12.5 C

12.5 C

12.9 C

9 W/m

0.00 mm

05:15

13.1 C

1015.4 hpa

87 %

6.4 km/h aus 117

9.7 km/h aus ESE

10.9 C

12.9 C

12.9 C

13.1 C

12 W/m

0.00 mm

05:20

13.2 C

1015.4 hpa

87 %

6.4 km/h aus 115

9.7 km/h aus ESE

11.0 C

13.0 C

13.0 C

13.2 C

19 W/m

0.00 mm

05:25

13.3 C

1015.4 hpa

87 %

6.4 km/h aus 115

9.7 km/h aus ESE

11.2 C

13.2 C

13.2 C

13.3 C

23 W/m

0.00 mm

05:30

13.4 C

1015.3 hpa

87 %

4.8 km/h aus 117

8.0 km/h aus ESE

11.3 C

13.4 C

13.4 C

13.4 C

25 W/m

0.00 mm

05:35

13.6 C

1015.3 hpa

87 %

4.8 km/h aus 117

9.7 km/h aus ESE

11.4 C

13.6 C

13.6 C

13.6 C

27 W/m

0.00 mm

05:40

13.7 C

1015.3 hpa

87 %

4.8 km/h aus 118

6.4 km/h aus ESE

11.5 C

13.7 C

13.7 C

13.7 C

36 W/m

0.00 mm

05:45

13.8 C

1015.3 hpa

87 %

4.8 km/h aus 114

6.4 km/h aus ESE

11.7 C

13.8 C

13.8 C

13.8 C

40 W/m

0.00 mm

05:50

13.9 C

1015.3 hpa

86 %

1.6 km/h aus 115

3.2 km/h aus ESE

11.6 C

13.8 C

13.9 C

13.8 C

36 W/m

0.00 mm

05:55

14.0 C

1015.3 hpa

86 %

3.2 km/h aus 116

6.4 km/h aus ESE

11.7 C

13.9 C

14.0 C

13.9 C

31 W/m

0.00 mm

06:00

14.2 C

1015.3 hpa

86 %

3.2 km/h aus 116

4.8 km/h aus ESE

11.9 C

14.1 C

14.2 C

14.1 C

38 W/m

0.00 mm

06:05

14.3 C

1015.3 hpa

86 %

3.2 km/h aus 117

6.4 km/h aus ESE

12.0 C

14.2 C

14.3 C

14.2 C

41 W/m

0.00 mm

06:10

14.4 C

1015.3 hpa

86 %

4.8 km/h aus 116

6.4 km/h aus ESE

12.1 C

14.3 C

14.4 C

14.3 C

56 W/m

0.00 mm

06:15

14.6 C

1015.3 hpa

86 %

6.4 km/h aus 113

9.7 km/h aus SE

12.2 C

14.6 C

14.6 C

14.6 C

58 W/m

0.00 mm

06:20

14.7 C

1015.3 hpa

86 %

6.4 km/h aus 116

9.7 km/h aus SSE

12.3 C

14.7 C

14.7 C

14.7 C

54 W/m

0.00 mm

06:25

14.8 C

1015.3 hpa

86 %

8.0 km/h aus 117

9.7 km/h aus SSE

12.5 C

14.7 C

14.7 C

14.8 C

113 W/m

0.00 mm

06:30

15.1 C

1015.3 hpa

86 %

8.0 km/h aus 117

9.7 km/h aus SSE

12.7 C

14.9 C

14.9 C

15.1 C

130 W/m

0.00 mm

06:35

15.3 C

1015.3 hpa

86 %

8.0 km/h aus 116

9.7 km/h aus SSE

13.0 C

15.3 C

15.3 C

15.4 C

129 W/m

0.00 mm

06:40

15.7 C

1015.3 hpa

86 %

8.0 km/h aus 115

9.7 km/h aus SE

13.3 C

15.8 C

15.7 C

15.8 C

161 W/m

0.00 mm

06:45

16.0 C

1015.3 hpa

85 %

6.4 km/h aus 118

8.0 km/h aus SE

13.5 C

16.1 C

16.0 C

16.1 C

179 W/m

0.00 mm

06:50

16.3 C

1015.3 hpa

84 %

8.0 km/h aus 117

9.7 km/h aus SSE

13.6 C

16.4 C

16.3 C

16.4 C

200 W/m

0.00 mm

06:55

16.7 C

1015.3 hpa

83 %

8.0 km/h aus 117

9.7 km/h aus SSE

13.8 C

16.9 C

16.7 C

16.9 C

219 W/m

0.00 mm

07:00

17.1 C

1015.3 hpa

82 %

8.0 km/h aus 114

9.7 km/h aus SSE

14.0 C

17.2 C

17.1 C

17.2 C

145 W/m

0.00 mm

07:05

17.3 C

1015.3 hpa

81 %

8.0 km/h aus 115

9.7 km/h aus SSE

14.0 C

17.6 C

17.3 C

17.6 C

232 W/m

0.00 mm

07:10

17.7 C

1015.3 hpa

80 %

6.4 km/h aus 117

8.0 km/h aus SSE

14.2 C

17.9 C

17.7 C

17.9 C

230 W/m

0.00 mm

07:15

17.9 C

1015.3 hpa

79 %

8.0 km/h aus 116

9.7 km/h aus SSE

14.2 C

18.2 C

17.9 C

18.2 C

235 W/m

0.00 mm

07:20

18.3 C

1015.3 hpa

78 %

9.7 km/h aus 116

11.3 km/h aus SE

14.4 C

18.6 C

18.3 C

18.6 C

281 W/m

0.00 mm

07:25

18.7 C

1015.3 hpa

76 %

8.0 km/h aus 113

11.3 km/h aus SE

14.3 C

18.9 C

18.7 C

18.9 C

292 W/m

0.00 mm

07:30

18.9 C

1015.2 hpa

75 %

8.0 km/h aus 116

11.3 km/h aus SSE

14.4 C

19.2 C

18.9 C

19.2 C

301 W/m

0.00 mm

07:35

19.4 C

1015.2 hpa

73 %

9.7 km/h aus 117

14.5 km/h aus SSE

14.5 C

19.8 C

19.4 C

19.8 C

282 W/m

0.00 mm

07:40

19.8 C

1015.2 hpa

72 %

8.0 km/h aus 117

9.7 km/h aus SSE

14.6 C

20.1 C

19.8 C

20.1 C

327 W/m

0.00 mm

07:45

20.2 C

1015.2 hpa

70 %

8.0 km/h aus 117

12.9 km/h aus SSE

14.5 C

20.4 C

20.2 C

20.4 C

339 W/m

0.00 mm

07:50

20.4 C

1015.2 hpa

68 %

9.7 km/h aus 115

14.5 km/h aus S

14.3 C

20.6 C

20.4 C

20.6 C

350 W/m

0.00 mm

07:55

20.7 C

1015.2 hpa

67 %

9.7 km/h aus 116

19.3 km/h aus SSE

14.4 C

20.7 C

20.7 C

20.7 C

369 W/m

0.00 mm

08:00

20.9 C

1015.2 hpa

66 %

9.7 km/h aus 115

16.1 km/h aus S

14.4 C

20.8 C

20.9 C

20.8 C

360 W/m

0.00 mm

08:05

21.2 C

1015.2 hpa

65 %

12.9 km/h aus 116

19.3 km/h aus SSE

14.3 C

20.7 C

20.9 C

21.0 C

347 W/m

0.00 mm

08:10

21.4 C

1015.2 hpa

65 %

11.3 km/h aus 115

17.7 km/h aus SSE

14.6 C

21.3 C

21.4 C

21.3 C

399 W/m

0.00 mm

08:15

21.7 C

1015.2 hpa

65 %

11.3 km/h aus 116

17.7 km/h aus SSE

14.9 C

21.7 C

21.7 C

21.7 C

429 W/m

0.00 mm

08:20

22.0 C

1015.2 hpa

62 %

12.9 km/h aus 116

17.7 km/h aus SSE

14.4 C

21.7 C

21.7 C

21.9 C

451 W/m

0.00 mm

08:25

22.2 C

1015.2 hpa

61 %

11.3 km/h aus 116

19.3 km/h aus SE

14.3 C

22.1 C

22.2 C

22.1 C

469 W/m

0.00 mm

08:30

21.7 C

1015.3 hpa

64 %

9.7 km/h aus 116

19.3 km/h aus S

14.6 C

21.7 C

21.7 C

21.7 C

482 W/m

0.00 mm

08:35

21.7 C

1015.3 hpa

64 %

9.7 km/h aus 114

16.1 km/h aus SSE

14.6 C

21.6 C

21.7 C

21.6 C

522 W/m

0.00 mm

08:40

21.7 C

1015.3 hpa

63 %

12.9 km/h aus 117

19.3 km/h aus SSE

14.3 C

21.2 C

21.4 C

21.5 C

483 W/m

0.00 mm

08:45

21.3 C

1015.3 hpa

65 %

14.5 km/h aus 117

20.9 km/h aus SSE

14.4 C

20.4 C

20.5 C

21.2 C

389 W/m

0.00 mm

08:50

21.2 C

1015.3 hpa

67 %

12.9 km/h aus 118

16.1 km/h aus SSE

14.8 C

20.9 C

20.9 C

21.2 C

365 W/m

0.00 mm

08:55

21.1 C

1015.3 hpa

66 %

11.3 km/h aus 115

17.7 km/h aus S

14.5 C

20.9 C

21.1 C

20.9 C

278 W/m

0.00 mm

09:00

20.9 C

1015.3 hpa

66 %

14.5 km/h aus 116

20.9 km/h aus S

14.4 C

20.1 C

20.2 C

20.8 C

275 W/m

0.00 mm

09:05

20.9 C

1015.3 hpa

67 %

12.9 km/h aus 116

19.3 km/h aus S

14.5 C

20.6 C

20.6 C

20.9 C

253 W/m

0.00 mm

09:10

20.8 C

1015.3 hpa

68 %

11.3 km/h aus 117

17.7 km/h aus S

14.7 C

20.8 C

20.8 C

20.8 C

273 W/m

0.00 mm

09:15

21.4 C

1015.3 hpa

68 %

11.3 km/h aus 115

16.1 km/h aus S

15.3 C

21.5 C

21.4 C

21.5 C

641 W/m

0.00 mm

09:20

22.3 C

1015.3 hpa

68 %

9.7 km/h aus 115

14.5 km/h aus SSE

16.1 C

22.7 C

22.3 C

22.7 C

730 W/m

0.00 mm

09:25

22.4 C

1015.3 hpa

65 %

12.9 km/h aus 116

19.3 km/h aus SE

15.5 C

22.4 C

22.2 C

22.7 C

662 W/m

0.00 mm

09:30

22.6 C

1014.9 hpa

64 %

11.3 km/h aus 117

17.7 km/h aus SSE

15.5 C

22.9 C

22.6 C

22.9 C

626 W/m

0.00 mm

09:35

22.4 C

1014.9 hpa

66 %

11.3 km/h aus 117

16.1 km/h aus S

15.8 C

22.7 C

22.4 C

22.7 C

374 W/m

0.00 mm

09:40

22.3 C

1014.9 hpa

65 %

16.1 km/h aus 113

20.9 km/h aus SSE

15.4 C

21.3 C

21.1 C

22.4 C

400 W/m

0.00 mm

09:45

22.8 C

1014.9 hpa

64 %

11.3 km/h aus 116

16.1 km/h aus SSE

15.6 C

23.1 C

22.8 C

23.1 C

633 W/m

0.00 mm

09:50

23.0 C

1014.9 hpa

63 %

11.3 km/h aus 117

20.9 km/h aus S

15.6 C

23.4 C

23.0 C

23.4 C

659 W/m

0.00 mm

09:55

23.1 C

1014.9 hpa

60 %

12.9 km/h aus 117

17.7 km/h aus SSE

14.9 C

23.1 C

22.8 C

23.3 C

679 W/m

0.00 mm

10:00

22.6 C

1014.9 hpa

62 %

12.9 km/h aus 116

19.3 km/h aus SSE

15.0 C

22.6 C

22.3 C

22.8 C

371 W/m

0.00 mm

10:05

22.4 C

1014.9 hpa

63 %

11.3 km/h aus 113

17.7 km/h aus SSE

15.1 C

22.6 C

22.4 C

22.6 C

400 W/m

0.00 mm

10:10

23.0 C

1014.9 hpa

67 %

11.3 km/h aus 117

16.1 km/h aus SSE

16.5 C

23.6 C

23.0 C

23.6 C

666 W/m

0.00 mm

10:15

23.8 C

1014.8 hpa

63 %

11.3 km/h aus 117

17.7 km/h aus SE

16.4 C

24.4 C

23.8 C

24.4 C

1017 W/m

0.00 mm

10:20

23.6 C

1014.8 hpa

63 %

11.3 km/h aus 115

17.7 km/h aus SE

16.1 C

24.2 C

23.6 C

24.2 C

480 W/m

0.00 mm

10:25

23.2 C

1014.8 hpa

64 %

14.5 km/h aus 113

19.3 km/h aus SE

16.0 C

23.1 C

22.5 C

23.8 C

452 W/m

0.00 mm

10:30

23.3 C

1014.7 hpa

65 %

12.9 km/h aus 116

20.9 km/h aus SSE

16.4 C

23.7 C

23.1 C

24.0 C

480 W/m

0.00 mm

10:35

23.7 C

1014.7 hpa

65 %

8.0 km/h aus 116

12.9 km/h aus S

16.7 C

24.4 C

23.7 C

24.4 C

501 W/m

0.00 mm

10:40

23.7 C

1014.7 hpa

61 %

8.0 km/h aus 115

16.1 km/h aus SSE

15.7 C

24.2 C

23.7 C

24.2 C

529 W/m

0.00 mm

10:45

24.1 C

1014.7 hpa

65 %

8.0 km/h aus 115

12.9 km/h aus ESE

17.1 C

24.8 C

24.1 C

24.8 C

884 W/m

0.00 mm

10:50

24.2 C

1014.7 hpa

61 %

9.7 km/h aus 114

16.1 km/h aus ESE

16.2 C

24.7 C

24.2 C

24.7 C

838 W/m

0.00 mm

10:55

24.7 C

1014.7 hpa

63 %

9.7 km/h aus 118

19.3 km/h aus SSE

17.2 C

25.3 C

24.7 C

25.3 C

903 W/m

0.00 mm

11:00

24.5 C

1014.5 hpa

57 %

8.0 km/h aus 117

16.1 km/h aus SSE

15.4 C

24.8 C

24.5 C

24.8 C

855 W/m

0.00 mm

11:05

25.0 C

1014.5 hpa

58 %

11.3 km/h aus 116

17.7 km/h aus SSE

16.2 C

25.3 C

25.0 C

25.3 C

895 W/m

0.00 mm

11:10

24.8 C

1014.5 hpa

57 %

12.9 km/h aus 113

19.3 km/h aus SSE

15.7 C

24.8 C

24.6 C

25.1 C

830 W/m

0.00 mm

11:15

24.1 C

1014.3 hpa

60 %

9.7 km/h aus 116

14.5 km/h aus SE

15.9 C

24.6 C

24.1 C

24.6 C

343 W/m

0.00 mm

11:20

23.7 C

1014.3 hpa

64 %

4.8 km/h aus 116

9.7 km/h aus SE

16.5 C

24.4 C

23.7 C

24.4 C

410 W/m

0.00 mm

11:25

23.9 C

1014.3 hpa

62 %

3.2 km/h aus 117

6.4 km/h aus ESE

16.2 C

24.5 C

23.9 C

24.5 C

755 W/m

0.00 mm

11:30

24.4 C

1014.3 hpa

61 %

3.2 km/h aus 116

9.7 km/h aus E

16.4 C

24.8 C

24.4 C

24.8 C

875 W/m

0.00 mm

11:35

24.6 C

1014.3 hpa

54 %

3.2 km/h aus 114

6.4 km/h aus ESE

14.6 C

24.7 C

24.6 C

24.7 C

889 W/m

0.00 mm

11:40

24.7 C

1014.3 hpa

58 %

1.6 km/h aus 117

8.0 km/h aus ESE

15.8 C

25.0 C

24.7 C

25.0 C

792 W/m

0.00 mm

11:45

25.0 C

1014.1 hpa

58 %

3.2 km/h aus 117

6.4 km/h aus ESE

16.2 C

25.3 C

25.0 C

25.3 C

906 W/m

0.00 mm

11:50

25.9 C

1014.1 hpa

48 %

11.3 km/h aus 117

29.0 km/h aus S

14.1 C

25.9 C

25.9 C

25.9 C

882 W/m

0.00 mm

11:55

26.0 C

1014.1 hpa

48 %

12.9 km/h aus 115

25.7 km/h aus S

14.1 C

25.8 C

25.8 C

26.0 C

821 W/m

0.00 mm

12:00

25.9 C

1013.8 hpa

48 %

12.9 km/h aus 115

24.1 km/h aus SSW

14.1 C

25.7 C

25.7 C

25.9 C

696 W/m

0.00 mm

12:05

25.9 C

1013.8 hpa

47 %

12.9 km/h aus 117

22.5 km/h aus S

13.8 C

25.7 C

25.7 C

25.9 C

662 W/m

0.00 mm

12:10

26.5 C

1013.8 hpa

55 %

11.3 km/h aus 117

20.9 km/h aus SSE

16.7 C

26.9 C

26.5 C

26.9 C

789 W/m

0.00 mm

12:15

26.2 C

1013.7 hpa

52 %

12.9 km/h aus 117

20.9 km/h aus S

15.6 C

26.2 C

26.0 C

26.4 C

676 W/m

0.00 mm

12:20

26.2 C

1013.7 hpa

51 %

11.3 km/h aus 114

20.9 km/h aus SW

15.3 C

26.4 C

26.2 C

26.4 C

684 W/m

0.00 mm

12:25

26.5 C

1013.7 hpa

51 %

16.1 km/h aus 116

22.5 km/h aus SSE

15.5 C

25.7 C

25.6 C

26.6 C

707 W/m

0.00 mm

12:30

26.6 C

1013.4 hpa

53 %

16.1 km/h aus 117

24.1 km/h aus SSE

16.2 C

25.9 C

25.7 C

26.8 C

1021 W/m

0.00 mm

12:35

27.1 C

1013.4 hpa

50 %

14.5 km/h aus 116

24.1 km/h aus S

15.8 C

26.7 C

26.6 C

27.2 C

1021 W/m

0.00 mm

12:40

27.3 C

1013.4 hpa

46 %

17.7 km/h aus 116

22.5 km/h aus S

14.6 C

26.2 C

26.3 C

27.2 C

947 W/m

0.00 mm

12:45

26.9 C

1013.2 hpa

49 %

14.5 km/h aus 115

22.5 km/h aus S

15.3 C

26.4 C

26.4 C

26.9 C

579 W/m

0.00 mm

12:50

27.7 C

1013.2 hpa

48 %

14.5 km/h aus 117

24.1 km/h aus SSE

15.7 C

27.3 C

27.2 C

27.8 C

970 W/m

0.00 mm

12:55

27.7 C

1013.2 hpa

51 %

11.3 km/h aus 117

19.3 km/h aus SSE

16.6 C

28.1 C

27.7 C

28.1 C

1220 W/m

0.00 mm

13:00

27.8 C

1013.1 hpa

44 %

11.3 km/h aus 117

19.3 km/h aus SE

14.5 C

27.7 C

27.8 C

27.7 C

1020 W/m

0.00 mm

13:05

27.6 C

1013.1 hpa

50 %

11.3 km/h aus 116

19.3 km/h aus SSW

16.2 C

27.9 C

27.6 C

27.9 C

883 W/m

0.00 mm

13:10

27.9 C

1013.1 hpa

46 %

17.7 km/h aus 115

32.2 km/h aus SSE

15.2 C

27.1 C

26.9 C

28.0 C

1098 W/m

0.00 mm

13:15

27.9 C

1012.9 hpa

46 %

17.7 km/h aus 117

27.4 km/h aus SSE

15.2 C

27.2 C

27.1 C

28.1 C

887 W/m

0.00 mm

13:20

27.9 C

1012.9 hpa

44 %

17.7 km/h aus 117

25.7 km/h aus S

14.5 C

26.9 C

26.9 C

27.8 C

783 W/m

0.00 mm

13:25

28.2 C

1012.9 hpa

47 %

12.9 km/h aus 116

22.5 km/h aus S

15.8 C

28.4 C

28.1 C

28.6 C

1288 W/m

0.00 mm

13:30

28.1 C

1012.7 hpa

42 %

17.7 km/h aus 113

27.4 km/h aus S

14.0 C

27.1 C

27.2 C

28.0 C

649 W/m

0.00 mm

13:35

27.9 C

1012.7 hpa

50 %

16.1 km/h aus 117

24.1 km/h aus S

16.5 C

27.5 C

27.1 C

28.3 C

793 W/m

0.00 mm

13:40

27.8 C

1012.7 hpa

48 %

14.5 km/h aus 117

24.1 km/h aus S

15.8 C

27.4 C

27.3 C

27.9 C

693 W/m

0.00 mm

13:45

27.9 C

1012.4 hpa

48 %

12.9 km/h aus 117

20.9 km/h aus S

15.9 C

28.1 C

27.8 C

28.2 C

1028 W/m

0.00 mm

13:50

27.9 C

1012.4 hpa

49 %

9.7 km/h aus 114

20.9 km/h aus SSE

16.2 C

28.3 C

27.9 C

28.3 C

733 W/m

0.00 mm

13:55

27.5 C

1012.4 hpa

45 %

16.1 km/h aus 115

25.7 km/h aus SSE

14.5 C

26.6 C

26.7 C

27.4 C

663 W/m

0.00 mm

14:00

27.6 C

1012.1 hpa

49 %

16.1 km/h aus 116

22.5 km/h aus SSE

15.9 C

26.9 C

26.8 C

27.7 C

672 W/m

0.00 mm

14:05

27.3 C

1012.1 hpa

47 %

16.1 km/h aus 115

22.5 km/h aus SE

15.0 C

26.4 C

26.5 C

27.3 C

718 W/m

0.00 mm

14:10

27.4 C

1012.1 hpa

47 %

16.1 km/h aus 118

22.5 km/h aus SSE

15.1 C

26.5 C

26.6 C

27.3 C

689 W/m

0.00 mm

14:15

27.2 C

1011.9 hpa

47 %

16.1 km/h aus 113

24.1 km/h aus SSE

14.9 C

26.2 C

26.3 C

27.1 C

584 W/m

0.00 mm

14:20

27.0 C

1011.9 hpa

49 %

16.1 km/h aus 116

24.1 km/h aus SSE

15.4 C

26.2 C

26.2 C

27.0 C

563 W/m

0.00 mm

14:25

27.2 C

1011.9 hpa

47 %

11.3 km/h aus 116

17.7 km/h aus SSE

14.9 C

27.1 C

27.2 C

27.1 C

535 W/m

0.00 mm

14:30

27.5 C

1011.7 hpa

46 %

11.3 km/h aus 116

17.7 km/h aus SSW

14.8 C

27.4 C

27.5 C

27.4 C

613 W/m

0.00 mm

14:35

27.7 C

1011.7 hpa

48 %

14.5 km/h aus 115

20.9 km/h aus SSE

15.7 C

27.3 C

27.2 C

27.8 C

598 W/m

0.00 mm

14:40

27.6 C

1011.7 hpa

43 %

11.3 km/h aus 115

20.9 km/h aus SSW

13.9 C

27.4 C

27.6 C

27.4 C

545 W/m

0.00 mm

14:45

27.3 C

1011.5 hpa

48 %

9.7 km/h aus 117

19.3 km/h aus S

15.4 C

27.3 C

27.3 C

27.3 C

487 W/m

0.00 mm

14:50

27.4 C

1011.5 hpa

50 %

11.3 km/h aus 116

20.9 km/h aus SSE

16.1 C

27.7 C

27.4 C

27.7 C

592 W/m

0.00 mm

14:55

27.7 C

1011.5 hpa

47 %

12.9 km/h aus 115

17.7 km/h aus SSE

15.3 C

27.6 C

27.5 C

27.7 C

583 W/m

0.00 mm

15:00

27.6 C

1011.1 hpa

50 %

8.0 km/h aus 114

11.3 km/h aus SSE

16.2 C

27.9 C

27.6 C

27.9 C

531 W/m

0.00 mm

15:05

27.7 C

1011.1 hpa

54 %

6.4 km/h aus 117

16.1 km/h aus SSW

17.6 C

28.4 C

27.7 C

28.4 C

558 W/m

0.00 mm

15:10

27.7 C

1011.1 hpa

53 %

14.5 km/h aus 118

24.1 km/h aus ESE

17.2 C

27.7 C

27.2 C

28.2 C

564 W/m

0.00 mm

15:15

27.7 C

1011.0 hpa

55 %

14.5 km/h aus 117

25.7 km/h aus ESE

17.8 C

27.9 C

27.2 C

28.4 C

955 W/m

0.00 mm

15:20

28.1 C

1011.0 hpa

50 %

16.1 km/h aus 114

25.7 km/h aus SE

16.7 C

27.8 C

27.3 C

28.6 C

988 W/m

0.00 mm

15:25

27.7 C

1011.0 hpa

50 %

17.7 km/h aus 115

27.4 km/h aus ESE

16.3 C

27.0 C

26.7 C

27.9 C

473 W/m

0.00 mm

15:30

27.7 C

1010.7 hpa

50 %

16.1 km/h aus 117

24.1 km/h aus ESE

16.3 C

27.2 C

26.9 C

27.9 C

485 W/m

0.00 mm

15:35

27.6 C

1010.7 hpa

52 %

11.3 km/h aus 117

19.3 km/h aus SE

16.8 C

27.9 C

27.6 C

27.9 C

548 W/m

0.00 mm

15:40

27.5 C

1010.7 hpa

54 %

12.9 km/h aus 116

19.3 km/h aus ESE

17.4 C

27.9 C

27.3 C

28.1 C

681 W/m

0.00 mm

15:45

28.1 C

1010.5 hpa

51 %

9.7 km/h aus 115

16.1 km/h aus ESE

17.0 C

28.6 C

28.1 C

28.6 C

568 W/m

0.00 mm

15:50

27.4 C

1010.5 hpa

50 %

12.9 km/h aus 115

25.7 km/h aus E

16.1 C

27.4 C

27.2 C

27.7 C

484 W/m

0.00 mm

15:55

27.3 C

1010.5 hpa

53 %

11.3 km/h aus 117

20.9 km/h aus SSE

16.9 C

27.7 C

27.3 C

27.7 C

483 W/m

0.00 mm

16:00

26.7 C

1010.3 hpa

54 %

12.9 km/h aus 115

20.9 km/h aus SE

16.6 C

26.8 C

26.4 C

27.0 C

276 W/m

0.00 mm

16:05

26.2 C

1010.3 hpa

54 %

12.9 km/h aus 114

22.5 km/h aus ESE

16.1 C

26.2 C

25.9 C

26.4 C

223 W/m

0.00 mm

16:10

25.7 C

1010.3 hpa

56 %

12.9 km/h aus 117

20.9 km/h aus ESE

16.3 C

25.8 C

25.4 C

26.1 C

168 W/m

0.00 mm

16:15

25.3 C

1010.1 hpa

57 %

11.3 km/h aus 117

20.9 km/h aus SE

16.2 C

25.7 C

25.3 C

25.7 C

141 W/m

0.00 mm

16:20

25.3 C

1010.1 hpa

59 %

8.0 km/h aus 116

14.5 km/h aus ESE

16.7 C

25.7 C

25.3 C

25.7 C

183 W/m

0.00 mm

16:25

25.3 C

1010.1 hpa

60 %

8.0 km/h aus 115

17.7 km/h aus SE

17.0 C

25.8 C

25.3 C

25.8 C

266 W/m

0.00 mm

16:30

25.7 C

1010.0 hpa

60 %

9.7 km/h aus 115

17.7 km/h aus ESE

17.3 C

26.2 C

25.7 C

26.2 C

301 W/m

0.00 mm

16:35

25.8 C

1010.0 hpa

60 %

8.0 km/h aus 116

14.5 km/h aus SE

17.4 C

26.3 C

25.8 C

26.3 C

226 W/m

0.00 mm

16:40

25.6 C

1010.0 hpa

59 %

9.7 km/h aus 117

16.1 km/h aus ESE

17.0 C

26.1 C

25.6 C

26.1 C

180 W/m

0.00 mm

16:45

25.5 C

1009.8 hpa

60 %

9.7 km/h aus 114

14.5 km/h aus SE

17.2 C

26.0 C

25.5 C

26.0 C

180 W/m

0.00 mm

16:50

25.6 C

1009.8 hpa

58 %

8.0 km/h aus 114

12.9 km/h aus ESE

16.7 C

25.9 C

25.6 C

25.9 C

237 W/m

0.00 mm

16:55

25.7 C

1009.8 hpa

62 %

4.8 km/h aus 117

8.0 km/h aus ESE

17.8 C

26.3 C

25.7 C

26.3 C

304 W/m

0.00 mm

17:00

25.8 C

1009.6 hpa

62 %

4.8 km/h aus 117

6.4 km/h aus SE

17.9 C

26.4 C

25.8 C

26.4 C

290 W/m

0.00 mm

17:05

25.9 C

1009.6 hpa

61 %

3.2 km/h aus 117

6.4 km/h aus ESE

17.8 C

26.5 C

25.9 C

26.5 C

188 W/m

0.00 mm

17:10

25.8 C

1009.6 hpa

63 %

4.8 km/h aus 113

8.0 km/h aus SE

18.2 C

26.5 C

25.8 C

26.5 C

192 W/m

0.00 mm

17:15

25.8 C

1009.6 hpa

63 %

3.2 km/h aus 116

6.4 km/h aus SE

18.2 C

26.5 C

25.8 C

26.5 C

203 W/m

0.00 mm

17:20

25.8 C

1009.6 hpa

61 %

4.8 km/h aus 118

9.7 km/h aus SE

17.7 C

26.4 C

25.8 C

26.4 C

282 W/m

0.00 mm

17:25

26.3 C

1009.6 hpa

60 %

1.6 km/h aus 117

6.4 km/h aus SE

17.9 C

27.0 C

26.3 C

27.0 C

355 W/m

0.00 mm

17:30

26.3 C

1009.5 hpa

62 %

1.6 km/h aus 88

4.8 km/h aus SE

18.4 C

27.1 C

26.3 C

27.1 C

259 W/m

0.00 mm

17:35

26.4 C

1009.5 hpa

56 %

0.0 km/h aus 115

3.2 km/h aus SE

17.0 C

26.9 C

26.4 C

26.9 C

228 W/m

0.00 mm

17:40

26.3 C

1009.5 hpa

57 %

4.8 km/h aus 117

6.4 km/h aus SE

17.1 C

26.8 C

26.3 C

26.8 C

160 W/m

0.00 mm

17:45

26.2 C

1009.5 hpa

56 %

4.8 km/h aus 115

9.7 km/h aus W

16.7 C

26.6 C

26.2 C

26.6 C

218 W/m

0.00 mm

17:50

26.0 C

1009.5 hpa

59 %

6.4 km/h aus 117

16.1 km/h aus NW

17.4 C

26.6 C

26.0 C

26.6 C

352 W/m

0.00 mm

17:55

26.1 C

1009.5 hpa

58 %

6.4 km/h aus 114

9.7 km/h aus NW

17.2 C

26.6 C

26.1 C

26.6 C

333 W/m

0.00 mm

18:00

26.3 C

1009.3 hpa

56 %

8.0 km/h aus 116

14.5 km/h aus NW

16.8 C

26.7 C

26.3 C

26.7 C

537 W/m

0.00 mm

18:05

26.2 C

1009.3 hpa

55 %

6.4 km/h aus 117

14.5 km/h aus NW

16.5 C

26.6 C

26.2 C

26.6 C

365 W/m

0.00 mm

18:10

25.9 C

1009.3 hpa

55 %

8.0 km/h aus 117

16.1 km/h aus WNW

16.2 C

26.2 C

25.9 C

26.2 C

208 W/m

0.00 mm

18:15

25.7 C

1009.1 hpa

56 %

6.4 km/h aus 115

11.3 km/h aus NW

16.2 C

26.0 C

25.7 C

26.0 C

193 W/m

0.00 mm

18:20

25.4 C

1009.1 hpa

57 %

6.4 km/h aus 115

11.3 km/h aus NW

16.3 C

25.8 C

25.4 C

25.8 C

164 W/m

0.00 mm

18:25

25.3 C

1009.1 hpa

57 %

4.8 km/h aus 116

9.7 km/h aus NW

16.1 C

25.6 C

25.3 C

25.6 C

162 W/m

0.00 mm

18:30

25.2 C

1009.0 hpa

57 %

6.4 km/h aus 117

9.7 km/h aus WNW

16.1 C

25.6 C

25.2 C

25.6 C

184 W/m

0.00 mm

18:35

25.1 C

1009.0 hpa

59 %

4.8 km/h aus 116

9.7 km/h aus NNW

16.5 C

25.4 C

25.1 C

25.4 C

152 W/m

0.00 mm

18:40

25.1 C

1009.0 hpa

59 %

3.2 km/h aus 114

6.4 km/h aus NNW

16.5 C

25.4 C

25.1 C

25.4 C

165 W/m

0.00 mm

18:45

25.0 C

1009.0 hpa

58 %

6.4 km/h aus 117

11.3 km/h aus NW

16.2 C

25.3 C

25.0 C

25.3 C

161 W/m

0.00 mm

18:50

24.9 C

1009.0 hpa

58 %

4.8 km/h aus 117

9.7 km/h aus NW

16.1 C

25.3 C

24.9 C

25.3 C

108 W/m

0.00 mm

18:55

24.9 C

1009.0 hpa

59 %

6.4 km/h aus 116

9.7 km/h aus WNW

16.3 C

25.3 C

24.9 C

25.3 C

96 W/m

0.00 mm

19:00

24.9 C

1009.1 hpa

62 %

6.4 km/h aus 114

11.3 km/h aus WNW

17.1 C

25.4 C

24.9 C

25.4 C

60 W/m

0.00 mm

19:05

24.8 C

1009.1 hpa

64 %

6.4 km/h aus 116

12.9 km/h aus WNW

17.6 C

25.5 C

24.8 C

25.5 C

45 W/m

0.25 mm

19:10

24.6 C

1009.1 hpa

65 %

4.8 km/h aus 116

8.0 km/h aus WNW

17.5 C

25.2 C

24.6 C

25.2 C

37 W/m

0.25 mm

19:15

24.3 C

1009.0 hpa

68 %

4.8 km/h aus 116

9.7 km/h aus NW

18.0 C

25.2 C

24.3 C

25.2 C

44 W/m

0.00 mm

19:20

23.8 C

1009.0 hpa

70 %

6.4 km/h aus 115

14.5 km/h aus NW

18.0 C

24.7 C

23.8 C

24.7 C

40 W/m

0.00 mm

19:25

23.4 C

1009.0 hpa

72 %

6.4 km/h aus 117

12.9 km/h aus NW

18.1 C

24.3 C

23.4 C

24.3 C

43 W/m

0.00 mm

19:30

22.9 C

1009.4 hpa

73 %

6.4 km/h aus 116

12.9 km/h aus WNW

17.8 C

23.8 C

22.9 C

23.8 C

38 W/m

0.00 mm

19:35

22.7 C

1009.4 hpa

74 %

4.8 km/h aus 116

8.0 km/h aus WNW

17.8 C

23.4 C

22.7 C

23.4 C

28 W/m

0.25 mm

19:40

22.4 C

1009.4 hpa

74 %

3.2 km/h aus 116

9.7 km/h aus WNW

17.6 C

23.1 C

22.4 C

23.1 C

26 W/m

0.00 mm

19:45

22.3 C

1009.6 hpa

75 %

3.2 km/h aus 114

8.0 km/h aus WNW

17.6 C

22.8 C

22.3 C

22.8 C

26 W/m

0.00 mm

19:50

22.1 C

1009.6 hpa

76 %

3.2 km/h aus 117

6.4 km/h aus WNW

17.6 C

22.6 C

22.1 C

22.6 C

28 W/m

0.00 mm

19:55

21.8 C

1009.6 hpa

77 %

4.8 km/h aus 117

9.7 km/h aus NW

17.6 C

22.3 C

21.8 C

22.3 C

36 W/m

0.25 mm

20:00

21.6 C

1009.6 hpa

78 %

4.8 km/h aus 117

9.7 km/h aus NW

17.6 C

22.2 C

21.6 C

22.2 C

40 W/m

0.00 mm

20:05

21.3 C

1009.6 hpa

79 %

4.8 km/h aus 115

6.4 km/h aus NW

17.5 C

21.9 C

21.3 C

21.9 C

43 W/m

0.25 mm

20:10

21.2 C

1009.6 hpa

80 %

1.6 km/h aus 116

4.8 km/h aus NW

17.6 C

21.8 C

21.2 C

21.8 C

50 W/m

0.00 mm

20:15

21.1 C

1009.5 hpa

80 %

1.6 km/h aus 117

6.4 km/h aus NNW

17.5 C

21.7 C

21.1 C

21.7 C

35 W/m

0.00 mm

20:20

20.9 C

1009.5 hpa

81 %

1.6 km/h aus 117

4.8 km/h aus NNW

17.6 C

21.7 C

20.9 C

21.7 C

29 W/m

0.00 mm

20:25

20.8 C

1009.5 hpa

83 %

3.2 km/h aus 116

4.8 km/h aus NNW

17.8 C

21.6 C

20.8 C

21.6 C

21 W/m

0.00 mm

20:30

20.7 C

1009.0 hpa

83 %

1.6 km/h aus 115

3.2 km/h aus ENE

17.7 C

21.6 C

20.7 C

21.6 C

13 W/m

0.00 mm

20:35

20.7 C

1009.0 hpa

83 %

1.6 km/h aus 117

3.2 km/h aus ENE

17.7 C

21.6 C

20.7 C

21.6 C

18 W/m

0.00 mm

20:40

20.6 C

1009.0 hpa

84 %

3.2 km/h aus 115

6.4 km/h aus ENE

17.8 C

21.5 C

20.6 C

21.5 C

19 W/m

0.00 mm

20:45

20.4 C

1008.5 hpa

85 %

4.8 km/h aus 116

9.7 km/h aus E

17.8 C

21.4 C

20.4 C

21.4 C

19 W/m

0.00 mm

20:50

20.2 C

1008.5 hpa

85 %

4.8 km/h aus 115

9.7 km/h aus E

17.6 C

21.1 C

20.2 C

21.1 C

16 W/m

0.00 mm

20:55

20.0 C

1008.5 hpa

86 %

4.8 km/h aus 114

9.7 km/h aus ESE

17.6 C

20.8 C

20.0 C

20.8 C

15 W/m

0.00 mm

21:00

19.9 C

1008.4 hpa

87 %

3.2 km/h aus 117

8.0 km/h aus E

17.7 C

20.8 C

19.9 C

20.8 C

14 W/m

0.00 mm

21:05

19.9 C

1008.4 hpa

87 %

4.8 km/h aus 117

8.0 km/h aus ESE

17.7 C

20.7 C

19.9 C

20.7 C

15 W/m

0.00 mm

21:10

19.8 C

1008.4 hpa

87 %

6.4 km/h aus 116

8.0 km/h aus ESE

17.6 C

20.7 C

19.8 C

20.7 C

13 W/m

0.00 mm

21:15

19.7 C

1008.0 hpa

87 %

4.8 km/h aus 114

8.0 km/h aus ESE

17.5 C

20.6 C

19.7 C

20.6 C

9 W/m

0.00 mm

21:20

19.7 C

1008.0 hpa

88 %

6.4 km/h aus 116

8.0 km/h aus ESE

17.6 C

20.5 C

19.7 C

20.5 C

6 W/m

0.00 mm

21:25

19.6 C

1008.0 hpa

88 %

4.8 km/h aus 117

9.7 km/h aus ESE

17.5 C

20.4 C

19.6 C

20.4 C

3 W/m

0.00 mm

21:30

19.5 C

1007.6 hpa

88 %

6.4 km/h aus 116

14.5 km/h aus E

17.5 C

20.3 C

19.5 C

20.3 C

0 W/m

0.00 mm

21:35

19.4 C

1007.6 hpa

88 %

4.8 km/h aus 117

9.7 km/h aus E

17.4 C

20.2 C

19.4 C

20.2 C

0 W/m

0.00 mm

21:40

19.3 C

1007.6 hpa

88 %

3.2 km/h aus 114

6.4 km/h aus ESE

17.3 C

20.1 C

19.3 C

20.1 C

3 W/m

0.00 mm

21:45

19.3 C

1007.5 hpa

89 %

4.8 km/h aus 117

6.4 km/h aus E

17.4 C

20.1 C

19.3 C

20.1 C

0 W/m

0.00 mm

21:50

19.3 C

1007.5 hpa

88 %

3.2 km/h aus 116

6.4 km/h aus E

17.2 C

20.0 C

19.3 C

20.0 C

0 W/m

0.00 mm

21:55

19.3 C

1007.5 hpa

88 %

3.2 km/h aus 117

6.4 km/h aus ESE

17.2 C

20.0 C

19.3 C

20.0 C

0 W/m

0.00 mm

22:00

19.3 C

1007.6 hpa

88 %

3.2 km/h aus 115

4.8 km/h aus ESE

17.2 C

20.0 C

19.3 C

20.0 C

0 W/m

0.00 mm

22:05

19.2 C

1007.6 hpa

88 %

1.6 km/h aus 114

3.2 km/h aus ESE

17.2 C

19.9 C

19.2 C

19.9 C

0 W/m

0.00 mm

22:10

19.2 C

1007.6 hpa

88 %

1.6 km/h aus 117

3.2 km/h aus ESE

17.1 C

19.9 C

19.2 C

19.9 C

0 W/m

0.00 mm

22:15

19.2 C

1007.8 hpa

88 %

3.2 km/h aus 117

4.8 km/h aus ESE

17.1 C

19.9 C

19.2 C

19.9 C

0 W/m

0.00 mm

22:20

19.1 C

1007.8 hpa

89 %

4.8 km/h aus 116

6.4 km/h aus ESE

17.3 C

19.8 C

19.1 C

19.8 C

0 W/m

0.00 mm

22:25

19.1 C

1007.8 hpa

89 %

3.2 km/h aus 114

4.8 km/h aus ESE

17.2 C

19.8 C

19.1 C

19.8 C

0 W/m

0.00 mm

22:30

19.0 C

1008.0 hpa

89 %

3.2 km/h aus 116

4.8 km/h aus ESE

17.1 C

19.7 C

19.0 C

19.7 C

0 W/m

0.00 mm

22:35

19.0 C

1008.0 hpa

89 %

1.6 km/h aus 118

3.2 km/h aus WSW

17.1 C

19.7 C

19.0 C

19.7 C

0 W/m

0.00 mm

22:40

18.9 C

1008.0 hpa

89 %

1.6 km/h aus 117

3.2 km/h aus WSW

17.1 C

19.7 C

18.9 C

19.7 C

0 W/m

0.00 mm

22:45

18.9 C

1008.1 hpa

89 %

1.6 km/h aus 116

3.2 km/h aus SW

17.1 C

19.7 C

18.9 C

19.7 C

0 W/m

0.00 mm

22:50

18.9 C

1008.1 hpa

89 %

3.2 km/h aus 115

4.8 km/h aus SW

17.1 C

19.7 C

18.9 C

19.7 C

0 W/m

0.00 mm

22:55

18.9 C

1008.1 hpa

89 %

1.6 km/h aus 117

4.8 km/h aus SW

17.1 C

19.7 C

18.9 C

19.7 C

0 W/m

0.00 mm

23:00

18.9 C

1008.0 hpa

89 %

3.2 km/h aus 117

6.4 km/h aus SW

17.1 C

19.7 C

18.9 C

19.7 C

0 W/m

0.00 mm

23:05

18.9 C

1008.0 hpa

90 %

4.8 km/h aus 117

6.4 km/h aus SSW

17.3 C

19.7 C

18.9 C

19.7 C

0 W/m

0.00 mm

23:10

18.9 C

1008.0 hpa

90 %

6.4 km/h aus 115

8.0 km/h aus S

17.3 C

19.7 C

18.9 C

19.7 C

0 W/m

0.00 mm

23:15

18.9 C

1008.0 hpa

90 %

8.0 km/h aus 116

11.3 km/h aus SSE

17.3 C

19.7 C

18.9 C

19.7 C

0 W/m

0.00 mm

23:20

18.9 C

1008.0 hpa

90 %

9.7 km/h aus 116

11.3 km/h aus SSE

17.2 C

19.6 C

18.9 C

19.6 C

0 W/m

0.00 mm

23:25

18.9 C

1008.0 hpa

90 %

8.0 km/h aus 117

11.3 km/h aus SSE

17.2 C

19.6 C

18.9 C

19.6 C

0 W/m

0.00 mm

23:30

18.8 C

1007.8 hpa

90 %

11.3 km/h aus 117

14.5 km/h aus SSE

17.2 C

19.6 C

18.8 C

19.6 C

0 W/m

0.00 mm

23:35

18.8 C

1007.8 hpa

91 %

9.7 km/h aus 114

14.5 km/h aus SE

17.3 C

19.6 C

18.8 C

19.6 C

0 W/m

0.00 mm

23:40

18.8 C

1007.8 hpa

91 %

8.0 km/h aus 117

14.5 km/h aus SE

17.3 C

19.6 C

18.8 C

19.6 C

0 W/m

0.00 mm

23:45

18.8 C

1007.5 hpa

91 %

8.0 km/h aus 116

9.7 km/h aus SE

17.3 C

19.6 C

18.8 C

19.6 C

0 W/m

0.00 mm

23:50

18.8 C

1007.5 hpa

91 %

8.0 km/h aus 117

9.7 km/h aus SE

17.3 C

19.6 C

18.8 C

19.6 C

0 W/m

0.00 mm

23:55

18.8 C

1007.5 hpa

91 %

8.0 km/h aus 116

9.7 km/h aus SSE

17.3 C

19.5 C

18.8 C

19.5 C

0 W/m

0.00 mm